Hourly Weather Roundup
Issued by NWS Central Illinois

Home | Current Version | Previous Version | Text Only | Print | Product List | Glossary On
Versions: 1 2 3 4 5 6 7 8 9 10 11 12 13 14 15 16 17 18 19 20 21 22 23 24 25 26 27 28 29 30 31 32 33 34 35 36 37 38 39 40 41 42 43 44 45 46 47 48 49 50
000
NZUS43 KILX 040410
HWRILX

AREA WEATHER ROUNDUP
NATIONAL WEATHER SERVICE, LINCOLN IL
1100 PM CDT THU SEP 03 2015


CITY           SKY/WX    TMP DP  RH WIND       PRES   REMARKS
BLOOMINGTON    CLEAR     76  69  79 SW3       29.97S
CHAMPAIGN      CLEAR     73  69  87 SW6       29.96S
DANVILLE       CLEAR     70  68  95 SW5       29.93R
DECATUR        PTCLDY    77  68  73 SW6       29.96S
EFFINGHAM      CLEAR     72  69  88 CALM      29.98S
FLORA          CLEAR     72  68  87 CALM      29.97S
GALESBURG      CLEAR     75  69  84 S3        29.94F
JACKSONVILLE   CLEAR     77  70  79 CALM      29.95S
LACON          CLEAR     73  69  88 CALM      29.93S
LAWRENCEVILLE  CLEAR     74  70  87 S3        29.97R
LITCHFIELD     CLEAR     73  68  84 S3        29.97S
$$


CITY           SKY/WX    TMP DP  RH WIND       PRES   REMARKS
LINCOLN        CLEAR     74  66  76 CALM      29.94S
MACOMB         CLEAR     73  69  88 CALM      29.97R
MATTOON        CLEAR     79  67  66 SW6       29.96S HX  81
MT CARMEL AP   CLEAR     72  68  88 CALM      29.97S
OLNEY-NOBLE AP CLEAR     70  68  94 CALM      29.97S
PARIS          CLEAR     74  69  86 SW6       29.97S
PEORIA         PTCLDY    79  70  74 CALM      29.94S HX  82
PONTIAC        CLEAR     73  71  93 CALM      29.94S
RANTOUL        CLEAR     77  71  81 W5        29.95S
ROBINSON       CLEAR     71  69  93 CALM      29.97S
SPRINGFIELD    PTCLDY    76  68  76 SW3       29.96R
TAYLORVILLE    CLEAR     72  68  88 S5        29.97R
$$

...REGIONAL REPORTS...


CITY           SKY/WX    TMP DP  RH WIND       PRES   REMARKS
CHICAGO O`HARE MOCLDY    72  67  84 E9        29.96R
KANKAKEE       MOCLDY    73  69  86 SW3       29.94R
MOLINE         PTCLDY    77  71  82 CALM      29.92S
MOUNT STERLING CLEAR     74  69  85 S3        29.95R
MOUNT VERNON   CLEAR     70  64  83 CALM      29.98S
PITTSFIELD     CLEAR     77  69  77 S5        29.96S
QUINCY         CLEAR     78  67  68 S5        29.95R HX  80
ROCKFORD       PTCLDY    73  67  81 E6        29.96R
$$


CITY           SKY/WX    TMP DP  RH WIND       PRES   REMARKS
BURLINGTON     CLEAR     75  71  87 CALM      29.93S
CEDAR RAPIDS   MOCLDY    74  73  97 CALM      29.92R
DES MOINES     PTCLDY    79  70  74 SE7       29.89S HX  82
KIRKSVILLE     CLEAR     74  67  78 S5        29.95R
OTTUMWA        CLEAR     73  70  90 S5        29.91S
ST LOUIS       PTCLDY    83  68  60 CALM      29.96S HX  86
$$


CITY           SKY/WX    TMP DP  RH WIND       PRES   REMARKS
TERRE HAUTE    CLEAR     70  67  90 CALM      29.96S
EVANSVILLE     CLEAR     73  69  87 CALM      29.97S
INDIANAPOLIS   CLEAR     75  67  76 SW5       29.96S
LAFAYETTE      CLEAR     72  68  87 CALM      29.94R
MADISON        MOCLDY    70  65  84 NE3       29.97R
MILWAUKEE      MOCLDY    67  64  90 N3        29.96R
$$





USA.gov is the U.S. government's official web portal to all federal, state and local government web resources and services.